Location: Peebles
(55.6412°N, 3.1714°W)
Time: 09:52:33
(UTC+01:00)

ATHENA - Visible Passes

Search period start: 26 June 2022 00:00
Search period end: 06 July 2022 00:00
Orbit: 511 x 515 km, 97.4° (Epoch: 25 June)

Date Brightness Start Highest point End Pass type
(mag) Time Alt. Az. Time Alt. Az. Time Alt. Az.
26 Jun ? 23:09:48 10° S 23:13:24 44° W 23:17:01 10° NNW visible
29 Jun ? 00:15:20 10° WSW 00:16:49 12° W 00:18:18 10° WNW visible
29 Jun ? 23:58:36 10° SW 00:01:03 16° W 00:03:30 10° NW visible
30 Jun ? 23:42:19 10° SW 23:45:19 22° W 23:48:20 10° NW visible
01 Jul ? 23:26:16 10° SSW 23:29:37 31° W 23:33:00 10° NNW visible
02 Jul ? 23:10:21 10° S 23:13:56 43° W 23:17:34 10° NNW visible
03 Jul ? 22:54:35 10° S 22:58:17 62° WSW 23:02:03 10° NNW visible
05 Jul ? 00:15:54 10° WSW 00:17:19 12° W 00:18:43 10° WNW visible
